SL-16 R/B, 27006

Orbit data source: Space-Track

SL-16 R/B, 27006 is space debris in SSO originally from a launch on Mon, 10 Dec 2001 UTC launched from the Tyuratam Missile And Space Complex (TTMTR). Debris objects in space refer to the collection of defunct objects orbiting the Earth. Examples of debris include non-operational satellites, rocket bodies, and fragments generated from explosions, collisions, or faulty payload assembly.

Loading next visibility...
Identifier
27006, 2001-056F
Orbit
SSO
Country
Flag of CISCIS
Related business
Manufacturer
Yuzhnoe
Mission
Spacecraft
Bus & Motor
11S772, Unknown motor
Mass
~9,001 kg wet, 9,000 kg dry
Launch date (UTC)
2001-12-10 (24 years ago)
Launch vehicle
Unknown
Launch site
Tyuratam Missile And Space Complex (TTMTR)
Object type
Payload
Rocket body
Debris
Shape & HBR
Cyl, 5.2 m
Radar Cross Section
37.829 m², Large (>1 m²)

Expand to show TLE details & history
Last TLE update: 9 hours ago

TLE from 9 hours ago
0 SL-16 R/B
1 27006U 01056F   26150.47257898 -.00000038  00000-0  93727-5 0  9996
2 27006  99.7784 317.7388 0015122 135.2586 233.8176 13.71094306224405
Epoch: 2026-05-30T11:20Z
TLE epoch observation values (Epoch: 2026-05-30T11:20:30.823Z)
Latitude
8.74545°
Longitude
-101.88907°
Altitude
1,004.343 km
Speed
7.347 km/s
True Right ascension
21h 04m 54s
True Declination
8° 41' 44"
Sunlit
Object was in daylight at epoch
Visualization orbit readout
Latitude
Unknown
Longitude
Unknown
Altitude
Unknown
Speed
Unknown
Apparent Right ascension
Unknown
Apparent Declination
Unknown
Sunlit
N/A
Visualization observer readout
Local Sidereal Time
05:27:10
Azimuth
Unknown
Elevation
Unknown
Doppler factor
Unknown
Orbital elements
Apogee altitude
1,004.069 km
Perigee altitude
981.776 km
Semi-major axis
7,371.059 km
Eccentricity
0.00151
Inclination
99.7784°
RAAN
317.7388°
Arg. of periapsis
135.2586°
True anomaly
233.67789°
Mean anomaly
233.8176°
Eccentric anomaly
233.74773°
Mean motion
3.42964 °/min
Orbital period
104.97 mins
BSTAR
0.0000093727
Loading maneuver chart data...
Computing Atmospheric mass density...
Loading historical data...
Loading historical data...
Loading historical data...
Loading historical data...
Loading historical data...
Loading historical data...
Loading historical data...

Documentation

Showing up to 5 results
|